GW5877 Weather Reports


time (UTC)temp
C
wind
direction
speed
KPH
gust
KPH
rain 1hr
cm
rain 24hr
cm
rain mn
cm
humidity
%
barometer
mb
20260510060855 16 154 3.2 3.2 0.00 0.00 0.00 83 1018.5
20260510060353 16 74 1.6 1.6 0.00 0.00 0.00 83 1018.5
20260510055849 16 78 4.8 4.8 0.00 0.00 0.00 82 1018.0
20260510055349 16 11 3.2 6.4 0.00 0.00 0.00 82 1017.9
20260510054848 16 43 8.0 11.3 0.00 0.00 0.00 83 1017.7
20260510054344 16 103 6.4 12.9 0.00 0.00 0.00 85 1017.7
20260510053839 16 185 3.2 3.2 0.00 0.00 0.00 85 1017.7
20260510053334 16 73 4.8 6.4 0.00 0.00 0.00 86 1017.1
20260510052831 16 148 8.0 11.3 0.00 0.00 0.00 88 1017.3
20260510052327 16 125 4.8 9.7 0.00 0.00 0.00 89 1017.4
20260510051824 16 59 1.6 3.2 0.00 0.00 0.00 89 1017.6
20260510051320 16 229 4.8 6.4 0.00 0.00 0.00 88 1017.4
20260510050818 16 3 9.7 12.9 0.00 0.00 0.00 88 1017.5
20260510050314 17 312 4.8 6.4 0.00 0.00 0.00 88 1017.1
20260510045811 17 132 3.2 3.2 0.00 0.51 0.51 88 1017.2
20260510045307 17 256 3.2 4.8 0.00 0.51 0.51 88 1017.2
20260510044805 17 217 1.6 1.6 0.00 0.51 0.51 87 1017.0
20260510044302 17 47 1.6 1.6 0.18 0.51 0.51 88 1016.3
20260510043758 17 85 8.0 9.7 0.30 0.51 0.51 88 1016.1
20260510043254 17 243 1.6 3.2 0.61 0.48 0.48 86 1017.2
20260510042752 17 29 3.2 6.4 1.37 0.46 0.46 86 1017.4
20260510042247 18 62 3.2 3.2 1.68 0.38 0.38 84 1018.2
20260510041744 18 255 3.2 3.2 0.89 0.23 0.23 80 1019.3
20260510041241 19 261 8.0 11.3 0.61 0.13 0.13 76 1019.2
20260510040739 20 246 4.8 9.7 0.48 0.08 0.08 73 1019.3
20260510040236 21 257 6.4 12.9 0.18 0.03 0.03 66 1018.4
20260510035731 22 258 6.4 6.4 0.00 0.00 0.00 58 1017.9
20260510035226 22 233 3.2 4.8 0.00 0.00 0.00 55 1016.7
20260510034723 23 196 1.6 3.2 0.00 0.00 0.00 52 1016.2
20260510034221 23 42 4.8 6.4 0.00 0.00 0.00 50 1015.8
20260510033716 23 5 3.2 4.8 0.00 0.00 0.00 48 1015.0
20260510033215 23 61 3.2 4.8 0.00 0.00 0.00 47 1014.5
20260510032711 23 80 3.2 3.2 0.00 0.00 0.00 48 1013.9
20260510032207 23 122 6.4 9.7 0.00 0.00 0.00 48 1013.4
20260510031701 23 124 8.0 11.3 0.00 0.00 0.00 48 1012.9
20260510031158 23 110 8.0 9.7 0.00 0.00 0.00 49 1012.6
20260510030652 23 41 6.4 9.7 0.00 0.00 0.00 48 1012.8
20260510030150 23 94 4.8 4.8 0.00 0.00 0.00 48 1012.9
20260510025647 24 109 6.4 6.4 0.00 0.00 0.00 49 1013.0
20260510025144 24 101 6.4 9.7 0.00 0.00 0.00 48 1013.3
20260510024641 25 54 8.0 12.9 0.00 0.00 0.00 47 1013.4
20260510024137 25 213 3.2 4.8 0.00 0.00 0.00 47 1013.3
20260510023633 25 139 3.2 4.8 0.00 0.00 0.00 47 1013.5
20260510023131 25 186 0.0 1.6 0.00 0.00 0.00 47 1013.2
20260510022631 25 191 1.6 1.6 0.00 0.00 0.00 47 1013.1
20260510022126 25 206 1.6 1.6 0.00 0.00 0.00 46 1013.0
20260510021622 25 126 3.2 3.2 0.00 0.00 0.00 46 1012.8
20260510021120 25 129 0.0 1.6 0.00 0.00 0.00 46 1012.7
20260510020613 25 109 4.8 4.8 0.00 0.00 0.00 45 1012.5
20260510020109 25 100 3.2 4.8 0.00 0.00 0.00 45 1012.1
20260510015605 25 120 3.2 3.2 0.00 0.00 0.00 46 1011.8
20260510015102 25 143 1.6 3.2 0.00 0.00 0.00 45 1011.6
20260510014558 25 192 1.6 1.6 0.00 0.00 0.00 45 1011.3
20260510014055 25 268 3.2 3.2 0.00 0.00 0.00 45 1011.4
20260510013549 25 183 0.0 1.6 0.00 0.00 0.00 45 1011.2
20260510013046 25 194 1.6 1.6 0.00 0.00 0.00 44 1011.2
20260510012539 26 170 1.6 3.2 0.00 0.00 0.00 44 1011.3
20260510012036 26 106 1.6 3.2 0.00 0.00 0.00 44 1011.5
20260510011536 26 212 0.0 1.6 0.00 0.00 0.00 43 1011.5
20260510011032 26 206 1.6 1.6 0.00 0.00 0.00 43 1011.3
20260510010528 26 218 1.6 3.2 0.00 0.00 0.00 43 1011.2
20260510010026 26 216 0.0 0.0 0.00 0.00 0.00 44 1011.2
20260510005521 26 199 0.0 1.6 0.00 0.00 0.00 43 1011.2
20260510005019 26 224 0.0 0.0 0.00 0.00 0.00 43 1011.6
20260510004516 26 209 1.6 1.6 0.00 0.00 0.00 44 1011.4
20260510004015 27 227 0.0 0.0 0.00 0.00 0.00 43 1011.5
20260510003510 27 200 1.6 1.6 0.00 0.00 0.00 42 1011.4
20260510003006 27 52 3.2 4.8 0.00 0.00 0.00 43 1011.2
20260510002502 27 188 0.0 0.0 0.00 0.00 0.00 43 1011.3
20260510001959 27 197 3.2 3.2 0.00 0.00 0.00 43 1011.6
20260510001456 27 105 1.6 1.6 0.00 0.00 0.00 42 1011.5
20260510000954 27 207 3.2 3.2 0.00 0.00 0.00 42 1011.6
20260510000449 27 189 0.0 1.6 0.00 0.00 0.00 42 1011.6
20260509235946 27 228 3.2 3.2 0.00 0.00 0.00 41 1011.4
20260509235443 28 100 1.6 3.2 0.00 0.00 0.00 40 1011.4
20260509234940 28 126 0.0 1.6 0.00 0.00 0.00 39 1011.5
20260509234436 29 204 0.0 0.0 0.00 0.00 0.00 39 1011.4
20260509233934 29 236 4.8 6.4 0.00 0.00 0.00 38 1011.5
20260509233432 29 230 0.0 1.6 0.00 0.00 0.00 39 1011.7
20260509232927 29 173 3.2 3.2 0.00 0.00 0.00 37 1011.6
20260509232425 29 234 3.2 3.2 0.00 0.00 0.00 37 1011.5
20260509231921 29 83 4.8 4.8 0.00 0.00 0.00 33 1011.7
20260509231418 30 88 3.2 4.8 0.00 0.00 0.00 33 1011.7
20260509230916 29 172 4.8 9.7 0.00 0.00 0.00 33 1011.6
20260509230413 29 48 4.8 4.8 0.00 0.00 0.00 33 1011.9
20260509225908 29 186 1.6 3.2 0.00 0.00 0.00 34 1011.6
20260509225405 29 108 6.4 9.7 0.00 0.00 0.00 34 1011.8
20260509224901 29 41 1.6 1.6 0.00 0.00 0.00 35 1011.8
20260509224357 29 228 1.6 3.2 0.00 0.00 0.00 34 1012.0
20260509223855 29 238 1.6 1.6 0.00 0.00 0.00 35 1011.9
20260509223351 30 204 1.6 3.2 0.00 0.00 0.00 35 1012.0
20260509222849 30 210 1.6 3.2 0.00 0.00 0.00 31 1012.1
20260509222349 30 120 3.2 4.8 0.00 0.00 0.00 31 1012.3
20260509221844 29 190 3.2 3.2 0.00 0.00 0.00 30 1012.0
20260509221342 29 243 1.6 1.6 0.00 0.00 0.00 31 1012.3
20260509220843 29 206 3.2 4.8 0.00 0.00 0.00 30 1012.6
20260509220339 30 64 4.8 6.4 0.00 0.00 0.00 32 1012.4
20260509215834 29 223 1.6 1.6 0.00 0.00 0.00 32 1012.4
20260509215331 29 139 3.2 4.8 0.00 0.00 0.00 32 1012.4
20260509214828 29 60 3.2 4.8 0.00 0.00 0.00 34 1012.5
20260509214326 30 119 3.2 4.8 0.00 0.00 0.00 32 1012.3
20260509213823 29 112 3.2 3.2 0.00 0.00 0.00 30 1012.4
20260509213318 29 112 3.2 4.8 0.00 0.00 0.00 33 1012.6
20260509212815 30 136 4.8 4.8 0.00 0.00 0.00 33 1012.5
20260509212313 29 116 6.4 6.4 0.00 0.00 0.00 33 1012.6
20260509211808 30 202 3.2 4.8 0.00 0.00 0.00 34 1012.9
20260509211304 30 222 0.0 0.0 0.00 0.00 0.00 34 1012.9
20260509210801 29 218 3.2 4.8 0.00 0.00 0.00 34 1013.0
20260509210259 30 200 0.0 0.0 0.00 0.00 0.00 35 1012.8
20260509205759 30 200 1.6 1.6 0.00 0.00 0.00 35 1013.0
20260509205254 29 233 1.6 1.6 0.00 0.00 0.00 36 1012.9
20260509204750 29 138 1.6 3.2 0.00 0.00 0.00 35 1013.0
20260509204246 29 114 3.2 3.2 0.00 0.00 0.00 36 1013.0
20260509203742 29 62 1.6 3.2 0.00 0.00 0.00 35 1013.1
20260509203241 30 142 1.6 1.6 0.00 0.00 0.00 35 1013.1
20260509202736 30 178 0.0 1.6 0.00 0.00 0.00 35 1013.2
20260509202232 30 200 1.6 1.6 0.00 0.00 0.00 32 1013.3
20260509201726 30 231 0.0 0.0 0.00 0.00 0.00 34 1013.3
20260509201224 29 244 0.0 0.0 0.00 0.00 0.00 34 1013.4
20260509200720 29 232 3.2 4.8 0.00 0.00 0.00 34 1013.4
20260509200215 29 224 0.0 1.6 0.00 0.00 0.00 31 1013.4
20260509195711 29 246 3.2 4.8 0.00 0.00 0.00 30 1013.6
20260509195207 29 230 0.0 1.6 0.00 0.00 0.00 32 1013.8
20260509194706 29 176 1.6 1.6 0.00 0.00 0.00 30 1013.8
20260509194204 29 126 4.8 4.8 0.00 0.00 0.00 34 1013.6
20260509193700 29 201 1.6 1.6 0.00 0.00 0.00 34 1013.9
20260509193155 28 79 1.6 3.2 0.00 0.00 0.00 32 1013.8
20260509192652 28 230 0.0 0.0 0.00 0.00 0.00 33 1013.9
20260509192147 29 142 3.2 3.2 0.00 0.00 0.00 36 1014.1
20260509191647 29 145 3.2 4.8 0.00 0.00 0.00 34 1013.9
20260509191144 28 127 0.0 0.0 0.00 0.00 0.00 34 1014.1
20260509190640 29 25 1.6 3.2 0.00 0.00 0.00 32 1014.0
20260509190138 29 120 3.2 3.2 0.00 0.00 0.00 33 1014.1
20260509185636 28 236 0.0 0.0 0.00 0.00 0.00 30 1014.3
20260509185131 28 253 1.6 3.2 0.00 0.00 0.00 30 1014.3
20260509184629 28 101 0.0 1.6 0.00 0.00 0.00 35 1014.3
20260509184126 28 227 0.0 1.6 0.00 0.00 0.00 34 1014.4
20260509183622 28 231 0.0 1.6 0.00 0.00 0.00 35 1014.4
20260509183117 28 204 0.0 0.0 0.00 0.00 0.00 35 1014.5
20260509182614 28 108 0.0 1.6 0.00 0.00 0.00 38 1014.6
20260509182110 28 220 3.2 4.8 0.00 0.00 0.00 34 1014.7
20260509181609 28 106 3.2 4.8 0.00 0.00 0.00 35 1014.7
20260509181106 28 232 1.6 1.6 0.00 0.00 0.00 35 1014.8
20260509180602 28 245 0.0 0.0 0.00 0.00 0.00 36 1014.8
20260509180059 27 158 3.2 3.2 0.00 0.00 0.00 38 1014.8
20260509175554 27 227 0.0 0.0 0.00 0.00 0.00 40 1015.0
20260509175052 28 239 1.6 3.2 0.00 0.00 0.00 36 1015.4
20260509174548 27 215 3.2 3.2 0.00 0.00 0.00 34 1015.5
20260509174044 27 255 3.2 3.2 0.00 0.00 0.00 33 1015.1
20260509173544 27 231 1.6 1.6 0.00 0.00 0.00 34 1015.5
20260509173040 27 220 0.0 0.0 0.00 0.00 0.00 41 1015.5
20260509172537 27 126 1.6 3.2 0.00 0.00 0.00 43 1015.5
20260509172033 27 235 1.6 1.6 0.00 0.00 0.00 36 1015.6
20260509171529 26 92 3.2 3.2 0.00 0.00 0.00 40 1015.6
20260509171026 27 191 1.6 3.2 0.00 0.00 0.00 41 1015.7
20260509170521 26 240 0.0 0.0 0.00 0.00 0.00 48 1015.6
20260509170017 26 239 1.6 3.2 0.00 0.00 0.00 53 1015.8
20260509165516 26 244 1.6 1.6 0.00 0.00 0.00 50 1015.7
20260509165012 26 192 1.6 1.6 0.00 0.00 0.00 54 1015.8
20260509164508 26 124 1.6 3.2 0.00 0.00 0.00 54 1015.8
20260509164004 25 96 3.2 4.8 0.00 0.00 0.00 56 1015.8
20260509163502 26 245 0.0 1.6 0.00 0.00 0.00 53 1015.9
20260509163001 25 196 0.0 1.6 0.00 0.00 0.00 55 1016.2
20260509162500 25 230 1.6 3.2 0.00 0.00 0.00 58 1016.0
20260509161955 25 236 3.2 3.2 0.00 0.00 0.00 56 1016.1
20260509161452 24 236 0.0 1.6 0.00 0.00 0.00 57 1016.0
20260509160947 23 239 0.0 0.0 0.00 0.00 0.00 58 1016.3
20260509160443 24 235 1.6 1.6 0.00 0.00 0.00 60 1016.1
20260509155938 24 151 3.2 3.2 0.00 0.00 0.00 58 1016.1
20260509155435 24 143 1.6 1.6 0.00 0.00 0.00 57 1015.8
20260509154932 24 231 0.0 0.0 0.00 0.00 0.00 59 1015.9
20260509154428 23 232 0.0 0.0 0.00 0.00 0.00 62 1015.9
20260509153925 23 206 0.0 0.0 0.00 0.00 0.00 61 1015.8
20260509153422 22 230 0.0 0.0 0.00 0.00 0.00 64 1016.0
20260509152919 22 203 0.0 1.6 0.00 0.00 0.00 65 1015.9
20260509152415 22 217 0.0 0.0 0.00 0.00 0.00 64 1015.7
20260509151912 22 181 3.2 4.8 0.00 0.00 0.00 61 1015.7
20260509151408 22 223 0.0 0.0 0.00 0.00 0.00 64 1015.8
20260509150907 22 227 0.0 0.0 0.00 0.00 0.00 66 1015.9
20260509150404 22 245 0.0 0.0 0.00 0.00 0.00 69 1015.7
20260509145902 22 242 0.0 0.0 0.00 0.00 0.00 71 1015.9
20260509145401 22 232 0.0 0.0 0.00 0.00 0.00 73 1015.7
20260509144857 22 234 0.0 0.0 0.00 0.00 0.00 74 1015.7
20260509144354 21 140 0.0 1.6 0.00 0.00 0.00 76 1015.7
20260509143851 21 8 3.2 3.2 0.00 0.00 0.00 76 1015.8
20260509143349 20 227 1.6 1.6 0.00 0.00 0.00 78 1015.7
20260509142845 19 230 0.0 1.6 0.00 0.00 0.00 80 1015.8
20260509142341 18 229 0.0 0.0 0.00 0.00 0.00 84 1015.7
20260509141837 18 259 0.0 0.0 0.00 0.00 0.00 83 1015.9
20260509141334 18 190 0.0 0.0 0.00 0.00 0.00 85 1015.9
20260509140830 17 225 0.0 0.0 0.00 0.00 0.00 90 1016.0
20260509140328 16 239 0.0 1.6 0.00 0.00 0.00 91 1016.0
20260509135826 16 234 1.6 1.6 0.00 0.00 0.00 93 1015.7
20260509135323 16 237 1.6 1.6 0.00 0.00 0.00 94 1015.8
20260509134820 15 238 1.6 1.6 0.00 0.00 0.00 95 1015.6
20260509134317 15 251 1.6 1.6 0.00 0.00 0.00 96 1015.8
20260509133814 15 236 0.0 0.0 0.00 0.00 0.00 96 1015.8
20260509133311 15 246 0.0 0.0 0.00 0.00 0.00 96 1015.7
20260509132809 14 232 1.6 1.6 0.00 0.00 0.00 97 1015.5
20260509132308 14 242 0.0 0.0 0.00 0.00 0.00 97 1015.7
20260509131804 13 239 0.0 0.0 0.00 0.00 0.00 97 1015.5
20260509131301 13 271 1.6 1.6 0.00 0.00 0.00 97 1015.5
20260509130757 13 236 0.0 0.0 0.00 0.00 0.00 97 1015.5
20260509130253 13 237 0.0 0.0 0.00 0.00 0.00 97 1015.1
20260509125750 13 260 1.6 1.6 0.00 0.00 0.00 97 1015.4
20260509125247 13 246 3.2 3.2 0.00 0.00 0.00 97 1015.0
20260509124743 13 237 1.6 1.6 0.00 0.00 0.00 97 1015.1
20260509124239 13 240 0.0 0.0 0.00 0.00 0.00 97 1014.8
20260509123738 13 232 0.0 0.0 0.00 0.00 0.00 97 1015.1
20260509123235 12 233 0.0 0.0 0.00 0.00 0.00 97 1014.8
20260509122730 12 233 0.0 0.0 0.00 0.00 0.00 96 1014.9
20260509122227 12 233 0.0 0.0 0.00 0.00 0.00 96 1014.6
20260509121724 12 232 0.0 0.0 0.00 0.00 0.00 96 1014.8
20260509121222 12 235 0.0 0.0 0.00 0.00 0.00 96 1014.8
20260509120720 12 235 0.0 0.0 0.00 0.00 0.00 96 1014.6
20260509120217 12 236 0.0 0.0 0.00 0.00 0.00 96 1014.7
20260509115715 12 237 0.0 0.0 0.00 0.00 0.00 96 1014.4
20260509115212 12 236 1.6 1.6 0.00 0.00 0.00 96 1014.6
20260509114710 13 237 0.0 0.0 0.00 0.00 0.00 96 1014.5
20260509114209 13 240 0.0 0.0 0.00 0.00 0.00 96 1014.5
20260509113707 13 241 0.0 0.0 0.00 0.00 0.00 96 1014.5
20260509113204 13 249 0.0 0.0 0.00 0.00 0.00 96 1014.2
20260509112700 13 245 0.0 0.0 0.00 0.00 0.00 96 1014.3
20260509112157 13 259 0.0 0.0 0.00 0.00 0.00 96 1014.3
20260509111654 13 244 0.0 0.0 0.00 0.00 0.00 96 1014.4
20260509111151 13 289 0.0 0.0 0.00 0.00 0.00 96 1014.2
20260509110648 13 230 0.0 0.0 0.00 0.00 0.00 96 1014.2
20260509110145 13 231 0.0 0.0 0.00 0.00 0.00 96 1014.1
20260509105643 13 234 0.0 0.0 0.00 0.00 0.00 96 1014.3
20260509105141 13 257 0.0 0.0 0.00 0.00 0.00 96 1014.4
20260509104638 13 237 0.0 0.0 0.00 0.00 0.00 96 1014.2
20260509104134 12 240 0.0 0.0 0.00 0.00 0.00 96 1014.3
20260509103632 12 230 0.0 0.0 0.00 0.00 0.00 96 1014.2
20260509103130 13 217 0.0 0.0 0.00 0.00 0.00 96 1014.2
20260509102627 13 233 0.0 0.0 0.00 0.00 0.00 96 1014.5
20260509102124 13 233 0.0 0.0 0.00 0.00 0.00 96 1014.3
20260509101620 13 233 0.0 0.0 0.00 0.00 0.00 96 1014.4
20260509101117 13 233 0.0 0.0 0.00 0.00 0.00 96 1014.5
20260509100614 13 233 0.0 0.0 0.00 0.00 0.00 96 1014.5
20260509100112 13 233 0.0 0.0 0.00 0.00 0.00 95 1014.6
20260509095608 13 231 0.0 0.0 0.00 0.00 0.00 95 1014.6
20260509095106 13 231 0.0 0.0 0.00 0.00 0.00 95 1014.9
20260509094601 13 231 0.0 0.0 0.00 0.00 0.00 95 1014.7
20260509094059 13 235 0.0 0.0 0.00 0.00 0.00 95 1014.8
20260509093557 13 234 0.0 0.0 0.00 0.00 0.00 95 1014.9
20260509093054 13 243 0.0 0.0 0.00 0.00 0.00 95 1014.9
20260509092552 13 243 0.0 0.0 0.00 0.00 0.00 95 1014.9
20260509092051 13 239 0.0 0.0 0.00 0.00 0.00 95 1014.8
20260509091548 13 235 0.0 0.0 0.00 0.00 0.00 95 1014.7
20260509091044 14 231 0.0 0.0 0.00 0.00 0.00 95 1014.7
20260509090542 14 231 0.0 0.0 0.00 0.00 0.00 95 1014.7
20260509090039 14 231 0.0 0.0 0.00 0.00 0.00 95 1014.9
20260509085536 14 231 0.0 0.0 0.00 0.00 0.00 95 1014.8
20260509085032 14 235 0.0 0.0 0.00 0.00 0.00 95 1014.7
20260509084529 14 237 0.0 0.0 0.00 0.00 0.00 95 1014.6
20260509084026 14 242 0.0 0.0 0.00 0.00 0.00 95 1014.4
20260509083524 14 239 0.0 0.0 0.00 0.00 0.00 95 1014.7
20260509083020 15 240 0.0 0.0 0.00 0.00 0.00 95 1014.6
20260509082518 15 238 0.0 0.0 0.00 0.00 0.00 95 1014.7
20260509082015 15 240 0.0 0.0 0.00 0.00 0.00 94 1014.6
20260509081512 14 231 0.0 0.0 0.00 0.00 0.00 94 1014.6
20260509081009 14 231 0.0 0.0 0.00 0.00 0.00 94 1014.5
20260509080507 14 225 0.0 0.0 0.00 0.00 0.00 94 1014.6
20260509080005 15 229 0.0 0.0 0.00 0.00 0.00 94 1015.0
20260509075502 15 229 0.0 0.0 0.00 0.00 0.00 94 1015.0
20260509074959 15 219 0.0 0.0 0.00 0.00 0.00 94 1015.1
20260509074457 15 229 0.0 0.0 0.00 0.00 0.00 94 1015.3
20260509073953 15 229 0.0 0.0 0.00 0.00 0.00 93 1015.3
20260509073449 15 228 0.0 0.0 0.00 0.00 0.00 93 1015.4
20260509072946 15 228 0.0 0.0 0.00 0.00 0.00 93 1015.4
20260509072443 15 232 0.0 0.0 0.00 0.00 0.00 93 1015.0
20260509071939 15 232 0.0 0.0 0.00 0.00 0.00 92 1015.4
20260509071436 15 214 0.0 0.0 0.00 0.00 0.00 92 1015.5
20260509070934 15 230 0.0 0.0 0.00 0.00 0.00 92 1015.5
20260509070431 15 237 0.0 0.0 0.00 0.00 0.00 92 1015.5
20260509065926 15 243 0.0 0.0 0.00 0.00 0.00 91 1015.3
20260509065422 16 238 0.0 0.0 0.00 0.00 0.00 91 1015.4
20260509064919 16 244 1.6 1.6 0.00 0.00 0.00 91 1015.0
20260509064416 15 230 0.0 0.0 0.00 0.00 0.00 91 1015.1
20260509063914 16 226 0.0 0.0 0.00 0.00 0.00 91 1015.1
20260509063409 16 198 0.0 0.0 0.00 0.00 0.00 90 1015.1
20260509062907 16 223 0.0 0.0 0.00 0.00 0.00 90 1015.4
20260509062404 16 215 0.0 0.0 0.00 0.00 0.00 90 1015.4
20260509061901 16 223 0.0 0.0 0.00 0.00 0.00 89 1015.6
20260509061359 16 219 0.0 0.0 0.00 0.00 0.00 89 1015.3